TimeEST,TemperatureF,Dew PointF,Humidity,Sea Level PressureIn,VisibilityMPH,Wind Direction,Wind SpeedMPH,Gust SpeedMPH,PrecipitationIn,Events,Conditions,WindDirDegrees,DateUTC
12:15 AM,53.6,50.0,88,30.42,10.0,NE,3.5,-,N/A,,Mostly Cloudy,40,2013-11-06 05:15:00
12:35 AM,53.6,50.0,88,30.42,10.0,NE,4.6,-,N/A,,Mostly Cloudy,40,2013-11-06 05:35:00
12:55 AM,53.6,51.8,94,30.41,10.0,NNE,6.9,-,N/A,,Overcast,20,2013-11-06 05:55:00
1:15 AM,53.6,51.8,94,30.41,10.0,NNE,5.8,-,N/A,,Overcast,20,2013-11-06 06:15:00
1:55 AM,53.6,51.8,94,30.40,10.0,NE,5.8,-,N/A,,Overcast,40,2013-11-06 06:55:00
2:15 AM,53.6,51.8,94,30.39,10.0,NNE,6.9,-,N/A,,Overcast,30,2013-11-06 07:15:00
2:35 AM,53.6,51.8,94,30.38,10.0,NNE,5.8,-,N/A,,Overcast,30,2013-11-06 07:35:00
2:55 AM,53.6,51.8,94,30.38,10.0,NE,8.1,-,N/A,,Overcast,40,2013-11-06 07:55:00
3:15 AM,53.6,51.8,94,30.37,10.0,NNE,6.9,-,N/A,,Overcast,30,2013-11-06 08:15:00
3:35 AM,53.6,51.8,94,30.37,10.0,NE,8.1,-,N/A,,Overcast,40,2013-11-06 08:35:00
3:55 AM,53.6,51.8,94,30.36,10.0,NE,5.8,-,N/A,,Overcast,40,2013-11-06 08:55:00
4:15 AM,53.6,51.8,94,30.36,10.0,NE,6.9,-,N/A,,Mostly Cloudy,40,2013-11-06 09:15:00
4:35 AM,53.6,51.8,94,30.35,10.0,NE,6.9,-,N/A,,Overcast,50,2013-11-06 09:35:00
4:55 AM,53.6,51.8,94,30.35,10.0,NE,6.9,-,N/A,,Overcast,40,2013-11-06 09:55:00
5:15 AM,53.6,51.8,94,30.35,10.0,NNE,5.8,-,N/A,,Overcast,30,2013-11-06 10:15:00
5:35 AM,53.6,51.8,94,30.35,10.0,NNE,5.8,-,N/A,,Overcast,20,2013-11-06 10:35:00
5:55 AM,53.6,51.8,94,30.35,10.0,NNE,6.9,-,N/A,,Overcast,30,2013-11-06 10:55:00
6:15 AM,53.6,51.8,94,30.35,10.0,NNE,6.9,-,N/A,,Overcast,20,2013-11-06 11:15:00
6:35 AM,53.6,51.8,94,30.35,10.0,NNE,6.9,-,N/A,,Overcast,30,2013-11-06 11:35:00
6:55 AM,53.6,51.8,94,30.35,10.0,NE,9.2,-,N/A,,Overcast,40,2013-11-06 11:55:00
7:15 AM,53.6,51.8,94,30.36,10.0,NE,8.1,-,N/A,,Overcast,50,2013-11-06 12:15:00
7:35 AM,53.6,51.8,94,30.36,10.0,NNE,8.1,-,N/A,,Overcast,30,2013-11-06 12:35:00
7:55 AM,53.6,51.8,94,30.36,10.0,NNE,10.4,-,N/A,,Overcast,30,2013-11-06 12:55:00
8:15 AM,53.6,51.8,94,30.37,10.0,NNE,6.9,-,N/A,,Overcast,30,2013-11-06 13:15:00
8:35 AM,55.4,51.8,88,30.37,10.0,NNE,9.2,-,N/A,,Overcast,30,2013-11-06 13:35:00
8:55 AM,55.4,51.8,88,30.37,10.0,NNE,9.2,-,N/A,,Overcast,30,2013-11-06 13:55:00
9:15 AM,55.4,51.8,88,30.36,10.0,NNE,10.4,-,N/A,,Overcast,30,2013-11-06 14:15:00
9:35 AM,57.2,51.8,82,30.36,10.0,NNE,6.9,-,N/A,,Overcast,30,2013-11-06 14:35:00
9:55 AM,59.0,51.8,77,30.36,10.0,NNE,6.9,-,N/A,,Overcast,20,2013-11-06 14:55:00
10:15 AM,60.8,51.8,72,30.36,10.0,NNE,5.8,-,N/A,,Scattered Clouds,30,2013-11-06 15:15:00
10:35 AM,60.8,51.8,72,30.36,10.0,NNE,3.5,-,N/A,,Clear,30,2013-11-06 15:35:00
10:55 AM,62.6,51.8,68,30.35,10.0,NE,3.5,-,N/A,,Clear,40,2013-11-06 15:55:00
11:15 AM,62.6,51.8,68,30.35,10.0,NNE,4.6,-,N/A,,Clear,20,2013-11-06 16:15:00
11:35 AM,62.6,51.8,68,30.34,10.0,North,3.5,-,N/A,,Mostly Cloudy,10,2013-11-06 16:35:00
11:55 AM,64.4,51.8,64,30.33,10.0,North,4.6,-,N/A,,Overcast,10,2013-11-06 16:55:00
12:15 PM,64.4,51.8,64,30.32,10.0,NE,3.5,-,N/A,,Mostly Cloudy,40,2013-11-06 17:15:00
12:35 PM,64.4,51.8,64,30.31,10.0,NE,4.6,-,N/A,,Scattered Clouds,50,2013-11-06 17:35:00
12:55 PM,64.4,51.8,64,30.30,10.0,Calm,Calm,-,N/A,,Clear,0,2013-11-06 17:55:00
1:15 PM,68.0,53.6,60,30.28,10.0,Calm,Calm,-,N/A,,Mostly Cloudy,0,2013-11-06 18:15:00
1:35 PM,68.0,53.6,60,30.26,10.0,NNE,4.6,-,N/A,,Mostly Cloudy,30,2013-11-06 18:35:00
1:55 PM,69.8,53.6,56,30.25,10.0,NNE,5.8,-,N/A,,Scattered Clouds,30,2013-11-06 18:55:00
2:15 PM,68.0,53.6,60,30.24,10.0,NE,3.5,-,N/A,,Scattered Clouds,40,2013-11-06 19:15:00
2:35 PM,69.8,53.6,56,30.23,10.0,Calm,Calm,-,N/A,,Mostly Cloudy,0,2013-11-06 19:35:00
2:55 PM,69.8,53.6,56,30.23,10.0,Calm,Calm,-,N/A,,Scattered Clouds,0,2013-11-06 19:55:00
3:15 PM,69.8,53.6,56,30.22,10.0,Calm,Calm,-,N/A,,Scattered Clouds,0,2013-11-06 20:15:00
3:35 PM,71.6,53.6,53,30.22,10.0,Calm,Calm,-,N/A,,Scattered Clouds,0,2013-11-06 20:35:00
3:55 PM,71.6,53.6,53,30.21,10.0,East,3.5,-,N/A,,Scattered Clouds,100,2013-11-06 20:55:00
4:15 PM,71.6,53.6,53,30.21,10.0,East,3.5,-,N/A,,Clear,100,2013-11-06 21:15:00
4:35 PM,69.8,53.6,56,30.20,10.0,Calm,Calm,-,N/A,,Clear,0,2013-11-06 21:35:00
4:55 PM,71.6,53.6,53,30.20,10.0,Calm,Calm,-,N/A,,Clear,0,2013-11-06 21:55:00
5:15 PM,69.8,53.6,56,30.20,10.0,East,3.5,-,N/A,,Clear,100,2013-11-06 22:15:00
5:35 PM,68.0,55.4,64,30.20,10.0,Calm,Calm,-,N/A,,Scattered Clouds,0,2013-11-06 22:35:00
5:55 PM,64.4,55.4,73,30.19,10.0,Calm,Calm,-,N/A,,Scattered Clouds,0,2013-11-06 22:55:00
6:15 PM,64.4,55.4,73,30.20,10.0,Calm,Calm,-,N/A,,Overcast,0,2013-11-06 23:15:00
6:35 PM,64.4,55.4,73,30.20,10.0,Calm,Calm,-,N/A,,Overcast,0,2013-11-06 23:35:00
6:55 PM,64.4,53.6,68,30.20,10.0,Calm,Calm,-,N/A,,Mostly Cloudy,0,2013-11-06 23:55:00
7:15 PM,62.6,55.4,77,30.19,10.0,Calm,Calm,-,N/A,,Scattered Clouds,0,2013-11-07 00:15:00
7:35 PM,62.6,55.4,77,30.19,10.0,Calm,Calm,-,N/A,,Scattered Clouds,0,2013-11-07 00:35:00
7:55 PM,62.6,55.4,77,30.19,10.0,Calm,Calm,-,N/A,,Overcast,0,2013-11-07 00:55:00
8:15 PM,60.8,55.4,82,30.18,10.0,Calm,Calm,-,N/A,,Mostly Cloudy,0,2013-11-07 01:15:00
8:35 PM,59.0,55.4,88,30.18,10.0,Calm,Calm,-,N/A,,Scattered Clouds,0,2013-11-07 01:35:00
8:55 PM,57.2,55.4,94,30.17,10.0,Calm,Calm,-,N/A,,Clear,0,2013-11-07 01:55:00
9:15 PM,57.2,55.4,94,30.17,10.0,Calm,Calm,-,N/A,,Clear,0,2013-11-07 02:15:00
9:35 PM,55.4,53.6,94,30.16,10.0,Calm,Calm,-,N/A,,Clear,0,2013-11-07 02:35:00
9:55 PM,55.4,55.4,100,30.16,10.0,Calm,Calm,-,N/A,,Clear,0,2013-11-07 02:55:00
10:15 PM,55.4,55.4,100,30.16,10.0,Calm,Calm,-,N/A,,Clear,0,2013-11-07 03:15:00
10:35 PM,55.4,55.4,100,30.16,10.0,Calm,Calm,-,N/A,,Clear,0,2013-11-07 03:35:00
10:55 PM,53.6,53.6,100,30.16,10.0,West,3.5,-,N/A,,Clear,280,2013-11-07 03:55:00
11:15 PM,53.6,53.6,100,30.16,10.0,WNW,3.5,-,N/A,,Clear,290,2013-11-07 04:15:00
11:35 PM,55.4,55.4,100,30.15,10.0,Calm,Calm,-,N/A,,Clear,0,2013-11-07 04:35:00
11:55 PM,55.4,55.4,100,30.14,10.0,Calm,Calm,-,N/A,,Clear,0,2013-11-07 04:55:00